Year,Month,Day,Hour,Minute,Value (Times are PST for temperature in C)
2007,05,23,00,00,11.20
2007,05,23,00,01,11.20
2007,05,23,00,02,11.10
2007,05,23,00,03,11.10
2007,05,23,00,04,11.10
2007,05,23,00,05,11.10
2007,05,23,00,06,11.00
2007,05,23,00,07,11.00
2007,05,23,00,08,11.00
2007,05,23,00,09,11.00
2007,05,23,00,10,10.90
2007,05,23,00,11,10.90
2007,05,23,00,12,10.90
2007,05,23,00,13,10.90
2007,05,23,00,14,10.90
2007,05,23,00,15,10.90
2007,05,23,00,16,10.90
2007,05,23,00,17,10.90
2007,05,23,00,18,10.90
2007,05,23,00,19,10.80
2007,05,23,00,20,10.80
2007,05,23,00,21,10.80
2007,05,23,00,22,10.80
2007,05,23,00,23,10.80
2007,05,23,00,24,10.80
2007,05,23,00,25,10.80
2007,05,23,00,26,10.80
2007,05,23,00,27,10.80
2007,05,23,00,28,10.80
2007,05,23,00,29,10.80
2007,05,23,00,30,10.80
2007,05,23,00,31,10.80
2007,05,23,00,32,10.70
2007,05,23,00,33,10.70
2007,05,23,00,34,10.70
2007,05,23,00,35,10.70
2007,05,23,00,36,10.70
2007,05,23,00,37,10.70
2007,05,23,00,38,10.70
2007,05,23,00,39,10.70
2007,05,23,00,40,10.60
2007,05,23,00,41,10.60
2007,05,23,00,42,10.60
2007,05,23,00,43,10.60
2007,05,23,00,44,10.50
2007,05,23,00,45,10.50
2007,05,23,00,46,10.50
2007,05,23,00,47,10.40
2007,05,23,00,48,10.40
2007,05,23,00,49,10.40
2007,05,23,00,50,10.40
2007,05,23,00,51,10.30
2007,05,23,00,52,10.30
2007,05,23,00,53,10.30
2007,05,23,00,54,10.30
2007,05,23,00,55,10.30
2007,05,23,00,56,10.30
2007,05,23,00,57,10.20
2007,05,23,00,58,10.20
2007,05,23,00,59,10.20
2007,05,23,01,00,10.20
2007,05,23,01,01,10.20
2007,05,23,01,02,10.20
2007,05,23,01,03,10.20
2007,05,23,01,04,10.10
2007,05,23,01,05,10.10
2007,05,23,01,06,10.10
2007,05,23,01,07,10.10
2007,05,23,01,08,10.10
2007,05,23,01,09,10.10
2007,05,23,01,10,10.00
2007,05,23,01,11,10.00
2007,05,23,01,12,9.90
2007,05,23,01,13,9.90
2007,05,23,01,14,9.90
2007,05,23,01,15,9.80
2007,05,23,01,16,9.80
2007,05,23,01,17,9.80
2007,05,23,01,18,9.80
2007,05,23,01,19,9.80
2007,05,23,01,20,9.80
2007,05,23,01,21,9.80
2007,05,23,01,22,9.70
2007,05,23,01,23,9.70
2007,05,23,01,24,9.70
2007,05,23,01,25,9.70
2007,05,23,01,26,9.70
2007,05,23,01,27,9.70
2007,05,23,01,28,9.70
2007,05,23,01,29,9.60
2007,05,23,01,30,9.60
2007,05,23,01,31,9.60
2007,05,23,01,32,9.60
2007,05,23,01,33,9.60
2007,05,23,01,34,9.50
2007,05,23,01,35,9.50
2007,05,23,01,36,9.40
2007,05,23,01,37,9.40
2007,05,23,01,38,9.40
2007,05,23,01,39,9.40
2007,05,23,01,40,9.30
2007,05,23,01,41,9.30
2007,05,23,01,42,9.30
2007,05,23,01,43,9.30
2007,05,23,01,44,9.30
2007,05,23,01,45,9.30
2007,05,23,01,46,9.30
2007,05,23,01,47,9.20
2007,05,23,01,48,9.20
2007,05,23,01,49,9.20
2007,05,23,01,50,9.20
2007,05,23,01,51,9.20
2007,05,23,01,52,9.20
2007,05,23,01,53,9.20
2007,05,23,01,54,9.20
2007,05,23,01,55,9.10
2007,05,23,01,56,9.10
2007,05,23,01,57,9.10
2007,05,23,01,58,9.10
2007,05,23,01,59,9.10
2007,05,23,02,00,9.10
2007,05,23,02,01,9.10
2007,05,23,02,02,9.00
2007,05,23,02,03,9.00
2007,05,23,02,04,8.90
2007,05,23,02,05,8.90
2007,05,23,02,06,8.90
2007,05,23,02,07,8.90
2007,05,23,02,08,8.90
2007,05,23,02,09,8.80
2007,05,23,02,10,8.80
2007,05,23,02,11,8.80
2007,05,23,02,12,8.80
2007,05,23,02,13,8.80
2007,05,23,02,14,8.80
2007,05,23,02,15,8.80
2007,05,23,02,16,8.70
2007,05,23,02,17,8.70
2007,05,23,02,18,8.70
2007,05,23,02,19,8.70
2007,05,23,02,20,8.60
2007,05,23,02,21,8.60
2007,05,23,02,22,8.60
2007,05,23,02,23,8.50
2007,05,23,02,24,8.50
2007,05,23,02,25,8.40
2007,05,23,02,26,8.40
2007,05,23,02,27,8.40
2007,05,23,02,28,8.30
2007,05,23,02,29,8.30
2007,05,23,02,30,8.30
2007,05,23,02,31,8.20
2007,05,23,02,32,8.20
2007,05,23,02,33,8.20
2007,05,23,02,34,8.20
2007,05,23,02,35,8.20
2007,05,23,02,36,8.10
2007,05,23,02,37,8.10
2007,05,23,02,38,8.10
2007,05,23,02,39,8.10
2007,05,23,02,40,8.00
2007,05,23,02,41,8.00
2007,05,23,02,42,8.00
2007,05,23,02,43,8.00
2007,05,23,02,44,7.90
2007,05,23,02,45,7.90
2007,05,23,02,46,7.90
2007,05,23,02,47,7.90
2007,05,23,02,48,7.90
2007,05,23,02,49,7.90
2007,05,23,02,50,7.90
2007,05,23,02,51,7.80
2007,05,23,02,52,7.80
2007,05,23,02,53,7.80
2007,05,23,02,54,7.90
2007,05,23,02,55,7.90
2007,05,23,02,56,7.90
2007,05,23,02,57,7.90
2007,05,23,02,58,7.90
2007,05,23,02,59,7.90
2007,05,23,03,00,7.90
2007,05,23,03,01,7.90
2007,05,23,03,02,7.90
2007,05,23,03,03,7.90
2007,05,23,03,04,7.90
2007,05,23,03,05,8.00
2007,05,23,03,06,8.00
2007,05,23,03,07,8.00
2007,05,23,03,08,8.10
2007,05,23,03,09,8.10
2007,05,23,03,10,8.10
2007,05,23,03,11,8.10
2007,05,23,03,12,8.20
2007,05,23,03,13,8.20
2007,05,23,03,14,8.20
2007,05,23,03,15,8.20
2007,05,23,03,16,8.20
2007,05,23,03,17,8.20
2007,05,23,03,18,8.20
2007,05,23,03,19,8.20
2007,05,23,03,20,8.30
2007,05,23,03,21,8.30
2007,05,23,03,22,8.30
2007,05,23,03,23,8.30
2007,05,23,03,24,8.30
2007,05,23,03,25,8.30
2007,05,23,03,26,8.30
2007,05,23,03,27,8.30
2007,05,23,03,28,8.30
2007,05,23,03,29,8.30
2007,05,23,03,30,8.30
2007,05,23,03,31,8.30
2007,05,23,03,32,8.30
2007,05,23,03,33,8.30
2007,05,23,03,34,8.30
2007,05,23,03,35,8.30
2007,05,23,03,36,8.40
2007,05,23,03,37,8.40
2007,05,23,03,38,8.40
2007,05,23,03,39,8.40
2007,05,23,03,40,8.40
2007,05,23,03,41,8.40
2007,05,23,03,42,8.50
2007,05,23,03,43,8.50
2007,05,23,03,44,8.50
2007,05,23,03,45,8.50
2007,05,23,03,46,8.50
2007,05,23,03,47,8.60
2007,05,23,03,48,8.60
2007,05,23,03,49,8.60
2007,05,23,03,50,8.60
2007,05,23,03,51,8.60
2007,05,23,03,52,8.60
2007,05,23,03,53,8.60
2007,05,23,03,54,8.70
2007,05,23,03,55,8.70
2007,05,23,03,56,8.70
2007,05,23,03,57,8.70
2007,05,23,03,58,8.70
2007,05,23,03,59,8.70
2007,05,23,04,00,8.70
2007,05,23,04,01,8.70
2007,05,23,04,02,8.70
2007,05,23,04,03,8.70
2007,05,23,04,04,8.70
2007,05,23,04,05,8.80
2007,05,23,04,06,8.80
2007,05,23,04,07,8.80
2007,05,23,04,08,8.80
2007,05,23,04,09,8.80
2007,05,23,04,10,8.80
2007,05,23,04,11,8.80
2007,05,23,04,12,8.80
2007,05,23,04,13,8.80
2007,05,23,04,14,8.80
2007,05,23,04,15,8.80
2007,05,23,04,16,8.70
2007,05,23,04,17,8.80
2007,05,23,04,18,8.80
2007,05,23,04,19,8.70
2007,05,23,04,20,8.70
2007,05,23,04,21,8.70
2007,05,23,04,22,8.70
2007,05,23,04,23,8.70
2007,05,23,04,24,8.70
2007,05,23,04,25,8.70
2007,05,23,04,26,8.70
2007,05,23,04,27,8.70
2007,05,23,04,28,8.70
2007,05,23,04,29,8.70
2007,05,23,04,30,8.70
2007,05,23,04,31,8.70
2007,05,23,04,32,8.70
2007,05,23,04,33,8.70
2007,05,23,04,34,8.70
2007,05,23,04,35,8.70
2007,05,23,04,36,8.70
2007,05,23,04,37,8.70
2007,05,23,04,38,8.70
2007,05,23,04,39,8.60
2007,05,23,04,40,8.60
2007,05,23,04,41,8.60
2007,05,23,04,42,8.60
2007,05,23,04,43,8.60
2007,05,23,04,44,8.60
2007,05,23,04,45,8.60
2007,05,23,04,46,8.60
2007,05,23,04,47,8.60
2007,05,23,04,48,8.60
2007,05,23,04,49,8.60
2007,05,23,04,50,8.60
2007,05,23,04,51,8.60
2007,05,23,04,52,8.60
2007,05,23,04,53,8.50
2007,05,23,04,54,8.50
2007,05,23,04,55,8.50
2007,05,23,04,56,8.50
2007,05,23,04,57,8.50
2007,05,23,04,58,8.50
2007,05,23,04,59,8.50
2007,05,23,05,00,8.50
2007,05,23,05,01,8.50
2007,05,23,05,02,8.40
2007,05,23,05,03,8.40
2007,05,23,05,04,8.40
2007,05,23,05,05,8.40
2007,05,23,05,06,8.40
2007,05,23,05,07,8.40
2007,05,23,05,08,8.40
2007,05,23,05,09,8.30
2007,05,23,05,10,8.30
2007,05,23,05,11,8.30
2007,05,23,05,12,8.30
2007,05,23,05,13,8.30
2007,05,23,05,14,8.30
2007,05,23,05,15,8.30
2007,05,23,05,16,8.30
2007,05,23,05,17,8.30
2007,05,23,05,18,8.30
2007,05,23,05,19,8.30
2007,05,23,05,20,8.30
2007,05,23,05,21,8.30
2007,05,23,05,22,8.30
2007,05,23,05,23,8.20
2007,05,23,05,24,8.20
2007,05,23,05,25,8.20
2007,05,23,05,26,8.20
2007,05,23,05,27,8.20
2007,05,23,05,28,8.20
2007,05,23,05,29,8.20
2007,05,23,05,30,8.20
2007,05,23,05,31,8.20
2007,05,23,05,32,8.20
2007,05,23,05,33,8.20
2007,05,23,05,34,8.20
2007,05,23,05,35,8.20
2007,05,23,05,36,8.20
2007,05,23,05,37,8.20
2007,05,23,05,38,8.20
2007,05,23,05,39,8.20
2007,05,23,05,40,8.30
2007,05,23,05,41,8.30
2007,05,23,05,42,8.30
2007,05,23,05,43,8.30
2007,05,23,05,44,8.30
2007,05,23,05,45,8.30
2007,05,23,05,46,8.30
2007,05,23,05,47,8.30
2007,05,23,05,48,8.30
2007,05,23,05,49,8.30
2007,05,23,05,50,8.30
2007,05,23,05,51,8.30
2007,05,23,05,52,8.30
2007,05,23,05,53,8.30
2007,05,23,05,54,8.30
2007,05,23,05,55,8.30
2007,05,23,05,56,8.30
2007,05,23,05,57,8.30
2007,05,23,05,58,8.30
2007,05,23,05,59,8.30
2007,05,23,06,00,8.30
2007,05,23,06,01,8.40
2007,05,23,06,02,8.40
2007,05,23,06,03,8.40
2007,05,23,06,04,8.40
2007,05,23,06,05,8.40
2007,05,23,06,06,8.40
2007,05,23,06,07,8.40
2007,05,23,06,08,8.40
2007,05,23,06,09,8.40
2007,05,23,06,10,8.40
2007,05,23,06,11,8.50
2007,05,23,06,12,8.50
2007,05,23,06,13,8.50
2007,05,23,06,14,8.50
2007,05,23,06,15,8.60
2007,05,23,06,16,8.60
2007,05,23,06,17,8.60
2007,05,23,06,18,8.60
2007,05,23,06,19,8.60
2007,05,23,06,20,8.60
2007,05,23,06,21,8.60
2007,05,23,06,22,8.60
2007,05,23,06,23,8.70
2007,05,23,06,24,8.70
2007,05,23,06,25,8.70
2007,05,23,06,26,8.70
2007,05,23,06,27,8.70
2007,05,23,06,28,8.70
2007,05,23,06,29,8.70
2007,05,23,06,30,8.70
2007,05,23,06,31,8.70
2007,05,23,06,32,8.70
2007,05,23,06,33,8.70
2007,05,23,06,34,8.80
2007,05,23,06,35,8.80
2007,05,23,06,36,8.80
2007,05,23,06,37,8.80
2007,05,23,06,38,8.80
2007,05,23,06,39,8.80
2007,05,23,06,40,8.80
2007,05,23,06,41,8.80
2007,05,23,06,42,8.80
2007,05,23,06,43,8.90
2007,05,23,06,44,8.90
2007,05,23,06,45,8.90
2007,05,23,06,46,8.90
2007,05,23,06,47,8.90
2007,05,23,06,48,8.90
2007,05,23,06,49,8.90
2007,05,23,06,50,8.90
2007,05,23,06,51,8.90
2007,05,23,06,52,8.90
2007,05,23,06,53,8.90
2007,05,23,06,54,8.90
2007,05,23,06,55,8.90
2007,05,23,06,56,8.90
2007,05,23,06,57,8.90
2007,05,23,06,58,8.90
2007,05,23,06,59,8.90
2007,05,23,07,00,8.90
2007,05,23,07,01,8.90
2007,05,23,07,02,8.90
2007,05,23,07,03,8.90
2007,05,23,07,04,8.90
2007,05,23,07,05,8.90
2007,05,23,07,06,8.90
2007,05,23,07,07,8.90
2007,05,23,07,08,9.00
2007,05,23,07,09,9.00
2007,05,23,07,10,9.00
2007,05,23,07,11,9.00
2007,05,23,07,12,9.00
2007,05,23,07,13,9.00
2007,05,23,07,14,9.10
2007,05,23,07,15,9.10
2007,05,23,07,16,9.10
2007,05,23,07,17,9.10
2007,05,23,07,18,9.10
2007,05,23,07,19,9.10
2007,05,23,07,20,9.20
2007,05,23,07,21,9.20
2007,05,23,07,22,9.20
2007,05,23,07,23,9.20
2007,05,23,07,24,9.20
2007,05,23,07,25,9.20
2007,05,23,07,26,9.20
2007,05,23,07,27,9.20
2007,05,23,07,28,9.30
2007,05,23,07,29,9.30
2007,05,23,07,30,9.30
2007,05,23,07,31,9.30
2007,05,23,07,32,9.30
2007,05,23,07,33,9.30
2007,05,23,07,34,9.30
2007,05,23,07,35,9.30
2007,05,23,07,36,9.30
2007,05,23,07,37,9.40
2007,05,23,07,38,9.40
2007,05,23,07,39,9.40
2007,05,23,07,40,9.50
2007,05,23,07,41,9.50
2007,05,23,07,42,9.50
2007,05,23,07,43,9.60
2007,05,23,07,44,9.60
2007,05,23,07,45,9.60
2007,05,23,07,46,9.60
2007,05,23,07,47,9.60
2007,05,23,07,48,9.60
2007,05,23,07,49,9.60
2007,05,23,07,50,9.70
2007,05,23,07,51,9.70
2007,05,23,07,52,9.70
2007,05,23,07,53,9.70
2007,05,23,07,54,9.70
2007,05,23,07,55,9.80
2007,05,23,07,56,9.80
2007,05,23,07,57,9.80
2007,05,23,07,58,9.80
2007,05,23,07,59,9.90
2007,05,23,08,00,9.90
2007,05,23,08,01,9.90
2007,05,23,08,02,10.00
2007,05,23,08,03,10.00
2007,05,23,08,04,10.10
2007,05,23,08,05,10.10
2007,05,23,08,06,10.10
2007,05,23,08,07,10.20
2007,05,23,08,08,10.20
2007,05,23,08,09,10.20
2007,05,23,08,10,10.20
2007,05,23,08,11,10.30
2007,05,23,08,12,10.30
2007,05,23,08,13,10.30
2007,05,23,08,14,10.30
2007,05,23,08,15,10.30
2007,05,23,08,16,10.40
2007,05,23,08,17,10.40
2007,05,23,08,18,10.40
2007,05,23,08,19,10.40
2007,05,23,08,20,10.50
2007,05,23,08,21,10.50
2007,05,23,08,22,10.60
2007,05,23,08,23,10.60
2007,05,23,08,24,10.70
2007,05,23,08,25,10.70
2007,05,23,08,26,10.80
2007,05,23,08,27,10.80
2007,05,23,08,28,10.80
2007,05,23,08,29,10.80
2007,05,23,08,30,10.80
2007,05,23,08,31,10.80
2007,05,23,08,32,10.80
2007,05,23,08,33,10.80
2007,05,23,08,34,10.80
2007,05,23,08,35,10.80
2007,05,23,08,36,10.80
2007,05,23,08,37,10.80
2007,05,23,08,38,10.80
2007,05,23,08,39,10.80
2007,05,23,08,40,10.80
2007,05,23,08,41,10.80
2007,05,23,08,42,10.80
2007,05,23,08,43,10.90
2007,05,23,08,44,10.90
2007,05,23,08,45,10.90
2007,05,23,08,46,10.90
2007,05,23,08,47,10.90
2007,05,23,08,48,10.80
2007,05,23,08,49,10.80
2007,05,23,08,50,10.80
2007,05,23,08,51,10.80
2007,05,23,08,52,10.90
2007,05,23,08,53,10.90
2007,05,23,08,54,10.90
2007,05,23,08,55,10.90
2007,05,23,08,56,11.00
2007,05,23,08,57,11.00
2007,05,23,08,58,10.90
2007,05,23,08,59,10.90
2007,05,23,09,00,11.00
2007,05,23,09,01,10.90
2007,05,23,09,02,10.90
2007,05,23,09,03,10.90
2007,05,23,09,04,10.90
2007,05,23,09,05,10.90
2007,05,23,09,06,10.90
2007,05,23,09,07,10.90
2007,05,23,09,08,10.90
2007,05,23,09,09,10.80
2007,05,23,09,10,10.80
2007,05,23,09,11,10.80
2007,05,23,09,12,10.90
2007,05,23,09,13,10.90
2007,05,23,09,14,10.90
2007,05,23,09,15,11.00
2007,05,23,09,16,11.10
2007,05,23,09,17,11.20
2007,05,23,09,18,11.20
2007,05,23,09,19,11.30
2007,05,23,09,20,11.30
2007,05,23,09,21,11.30
2007,05,23,09,22,11.30
2007,05,23,09,23,11.30
2007,05,23,09,24,11.30
2007,05,23,09,25,11.30
2007,05,23,09,26,11.40
2007,05,23,09,27,11.40
2007,05,23,09,28,11.40
2007,05,23,09,29,11.40
2007,05,23,09,30,11.40
2007,05,23,09,31,11.40
2007,05,23,09,32,11.40
2007,05,23,09,33,11.40
2007,05,23,09,34,11.40
2007,05,23,09,35,11.50
2007,05,23,09,36,11.50
2007,05,23,09,37,11.50
2007,05,23,09,38,11.40
2007,05,23,09,39,11.40
2007,05,23,09,40,11.30
2007,05,23,09,41,11.30
2007,05,23,09,42,11.30
2007,05,23,09,43,11.20
2007,05,23,09,44,11.20
2007,05,23,09,45,11.20
2007,05,23,09,46,11.20
2007,05,23,09,47,11.30
2007,05,23,09,48,11.30
2007,05,23,09,49,11.30
2007,05,23,09,50,11.30
2007,05,23,09,51,11.30
2007,05,23,09,52,11.30
2007,05,23,09,53,11.30
2007,05,23,09,54,11.30
2007,05,23,09,55,11.30
2007,05,23,09,56,11.20
2007,05,23,09,57,11.20
2007,05,23,09,58,11.10
2007,05,23,09,59,11.20
2007,05,23,10,00,11.20
2007,05,23,10,01,11.20
2007,05,23,10,02,11.20
2007,05,23,10,03,11.20
2007,05,23,10,04,11.20
2007,05,23,10,05,11.20
2007,05,23,10,06,11.20
2007,05,23,10,07,11.30
2007,05,23,10,08,11.30
2007,05,23,10,09,11.20
2007,05,23,10,10,11.20
2007,05,23,10,11,11.20
2007,05,23,10,12,11.20
2007,05,23,10,13,11.20
2007,05,23,10,14,11.20
2007,05,23,10,15,11.30
2007,05,23,10,16,11.30
2007,05,23,10,17,11.40
2007,05,23,10,18,11.40
2007,05,23,10,19,11.50
2007,05,23,10,20,11.50
2007,05,23,10,21,11.60
2007,05,23,10,22,11.60
2007,05,23,10,23,11.70
2007,05,23,10,24,11.70
2007,05,23,10,25,11.70
2007,05,23,10,26,11.70
2007,05,23,10,27,11.70
2007,05,23,10,28,11.80
2007,05,23,10,29,11.80
2007,05,23,10,30,11.80
2007,05,23,10,31,11.80
2007,05,23,10,32,11.80
2007,05,23,10,33,11.80
2007,05,23,10,34,11.80
2007,05,23,10,35,11.80
2007,05,23,10,36,11.80
2007,05,23,10,37,11.80
2007,05,23,10,38,11.90
2007,05,23,10,39,11.90
2007,05,23,10,40,12.00
2007,05,23,10,41,12.00
2007,05,23,10,42,12.10
2007,05,23,10,43,12.20
2007,05,23,10,44,12.20
2007,05,23,10,45,12.30
2007,05,23,10,46,12.30
2007,05,23,10,47,12.30
2007,05,23,10,48,12.30
2007,05,23,10,49,12.40
2007,05,23,10,50,12.40
2007,05,23,10,51,12.40
2007,05,23,10,52,12.40
2007,05,23,10,53,12.50
2007,05,23,10,54,12.50
2007,05,23,10,55,12.50
2007,05,23,10,56,12.50
2007,05,23,10,57,12.50
2007,05,23,10,58,12.50
2007,05,23,10,59,12.50
2007,05,23,11,00,12.60
2007,05,23,11,01,12.60
2007,05,23,11,02,12.60
2007,05,23,11,03,12.60
2007,05,23,11,04,12.60
2007,05,23,11,05,12.60
2007,05,23,11,06,12.60
2007,05,23,11,07,12.70
2007,05,23,11,08,12.70
2007,05,23,11,09,12.60
2007,05,23,11,10,12.50
2007,05,23,11,11,12.50
2007,05,23,11,12,12.40
2007,05,23,11,13,12.40
2007,05,23,11,14,12.40
2007,05,23,11,15,12.40
2007,05,23,11,16,12.40
2007,05,23,11,17,12.40
2007,05,23,11,18,12.40
2007,05,23,11,19,12.40
2007,05,23,11,20,12.40
2007,05,23,11,21,12.30
2007,05,23,11,22,12.30
2007,05,23,11,23,12.30
2007,05,23,11,24,12.40
2007,05,23,11,25,12.40
2007,05,23,11,26,12.50
2007,05,23,11,27,12.40
2007,05,23,11,28,12.40
2007,05,23,11,29,12.30
2007,05,23,11,30,12.30
2007,05,23,11,31,12.30
2007,05,23,11,32,12.30
2007,05,23,11,33,12.30
2007,05,23,11,34,12.30
2007,05,23,11,35,12.30
2007,05,23,11,36,12.30
2007,05,23,11,37,12.30
2007,05,23,11,38,12.30
2007,05,23,11,39,12.40
2007,05,23,11,40,12.40
2007,05,23,11,41,12.50
2007,05,23,11,42,12.50
2007,05,23,11,43,12.60
2007,05,23,11,44,12.60
2007,05,23,11,45,12.70
2007,05,23,11,46,12.60
2007,05,23,11,47,12.50
2007,05,23,11,48,12.50
2007,05,23,11,49,12.40
2007,05,23,11,50,12.30
2007,05,23,11,51,12.30
2007,05,23,11,52,12.30
2007,05,23,11,53,12.40
2007,05,23,11,54,12.40
2007,05,23,11,55,12.40
2007,05,23,11,56,12.50
2007,05,23,11,57,12.60
2007,05,23,11,58,12.70
2007,05,23,11,59,12.70
2007,05,23,12,00,12.90
2007,05,23,12,01,13.00
2007,05,23,12,02,13.10
2007,05,23,12,03,13.20
2007,05,23,12,04,13.30
2007,05,23,12,05,13.40
2007,05,23,12,06,13.50
2007,05,23,12,07,13.60
2007,05,23,12,08,13.70
2007,05,23,12,09,13.80
2007,05,23,12,10,13.80
2007,05,23,12,11,13.70
2007,05,23,12,12,13.70
2007,05,23,12,13,13.70
2007,05,23,12,14,13.60
2007,05,23,12,15,13.50
2007,05,23,12,16,13.50
2007,05,23,12,17,13.50
2007,05,23,12,18,13.60
2007,05,23,12,19,13.60
2007,05,23,12,20,13.70
2007,05,23,12,21,13.80
2007,05,23,12,22,13.80
2007,05,23,12,23,13.90
2007,05,23,12,24,14.00
2007,05,23,12,25,14.10
2007,05,23,12,26,14.30
2007,05,23,12,27,14.40
2007,05,23,12,28,14.50
2007,05,23,12,29,14.50
2007,05,23,12,30,14.50
2007,05,23,12,31,14.40
2007,05,23,12,32,14.40
2007,05,23,12,33,14.50
2007,05,23,12,34,14.50
2007,05,23,12,35,14.60
2007,05,23,12,36,14.60
2007,05,23,12,37,14.70
2007,05,23,12,38,14.60
2007,05,23,12,39,14.60
2007,05,23,12,40,14.70
2007,05,23,12,41,14.70
2007,05,23,12,42,14.80
2007,05,23,12,43,14.90
2007,05,23,12,44,15.00
2007,05,23,12,45,15.00
2007,05,23,12,46,15.00
2007,05,23,12,47,15.00
2007,05,23,12,48,15.10
2007,05,23,12,49,15.30
2007,05,23,12,50,15.30
2007,05,23,12,51,15.20
2007,05,23,12,52,15.20
2007,05,23,12,53,15.20
2007,05,23,12,54,15.20
2007,05,23,12,55,15.30
2007,05,23,12,56,15.30
2007,05,23,12,57,15.30
2007,05,23,12,58,15.30
2007,05,23,12,59,15.30
2007,05,23,13,00,15.20
2007,05,23,13,01,15.20
2007,05,23,13,02,15.20
2007,05,23,13,03,15.20
2007,05,23,13,04,15.20
2007,05,23,13,05,15.10
2007,05,23,13,06,15.00
2007,05,23,13,07,15.00
2007,05,23,13,08,15.10
2007,05,23,13,09,15.20
2007,05,23,13,10,15.30
2007,05,23,13,11,15.30
2007,05,23,13,12,15.30
2007,05,23,13,13,15.30
2007,05,23,13,14,15.40
2007,05,23,13,15,15.50
2007,05,23,13,16,15.50
2007,05,23,13,17,15.50
2007,05,23,13,18,15.50
2007,05,23,13,19,15.50
2007,05,23,13,20,15.50
2007,05,23,13,21,15.60
2007,05,23,13,22,15.60
2007,05,23,13,23,15.60
2007,05,23,13,24,15.60
2007,05,23,13,25,15.60
2007,05,23,13,26,15.60
2007,05,23,13,27,15.60
2007,05,23,13,28,15.50
2007,05,23,13,29,15.60
2007,05,23,13,30,15.60
2007,05,23,13,31,15.70
2007,05,23,13,32,15.70
2007,05,23,13,33,15.60
2007,05,23,13,34,15.50
2007,05,23,13,35,15.40
2007,05,23,13,36,15.20
2007,05,23,13,37,15.00
2007,05,23,13,38,15.00
2007,05,23,13,39,15.00
2007,05,23,13,40,15.00
2007,05,23,13,41,15.00
2007,05,23,13,42,15.00
2007,05,23,13,43,15.00
2007,05,23,13,44,15.20
2007,05,23,13,45,15.40
2007,05,23,13,46,15.40
2007,05,23,13,47,15.50
2007,05,23,13,48,15.60
2007,05,23,13,49,15.60
2007,05,23,13,50,15.60
2007,05,23,13,51,15.70
2007,05,23,13,52,15.60
2007,05,23,13,53,15.60
2007,05,23,13,54,15.70
2007,05,23,13,55,15.50
2007,05,23,13,56,15.40
2007,05,23,13,57,15.40
2007,05,23,13,58,15.40
2007,05,23,13,59,15.40
2007,05,23,14,00,15.30
2007,05,23,14,01,15.30
2007,05,23,14,02,15.40
2007,05,23,14,03,15.50
2007,05,23,14,04,15.60
2007,05,23,14,05,15.70
2007,05,23,14,06,15.90
2007,05,23,14,07,15.80
2007,05,23,14,08,15.80
2007,05,23,14,09,15.70
2007,05,23,14,10,15.70
2007,05,23,14,11,15.70
2007,05,23,14,12,15.60
2007,05,23,14,13,15.50
2007,05,23,14,14,15.50
2007,05,23,14,15,15.60
2007,05,23,14,16,15.60
2007,05,23,14,17,15.70
2007,05,23,14,18,15.80
2007,05,23,14,19,15.90
2007,05,23,14,20,15.90
2007,05,23,14,21,15.90
2007,05,23,14,22,15.90
2007,05,23,14,23,15.90
2007,05,23,14,24,16.00
2007,05,23,14,25,16.10
2007,05,23,14,26,16.10
2007,05,23,14,27,16.10
2007,05,23,14,28,16.10
2007,05,23,14,29,16.20
2007,05,23,14,30,16.30
2007,05,23,14,31,16.40
2007,05,23,14,32,16.50
2007,05,23,14,33,16.60
2007,05,23,14,34,16.60
2007,05,23,14,35,16.50
2007,05,23,14,36,16.40
2007,05,23,14,37,16.40
2007,05,23,14,38,16.40
2007,05,23,14,39,16.40
2007,05,23,14,40,16.30
2007,05,23,14,41,16.10
2007,05,23,14,42,16.20
2007,05,23,14,43,16.30
2007,05,23,14,44,16.30
2007,05,23,14,45,16.30
2007,05,23,14,46,16.40
2007,05,23,14,47,16.40
2007,05,23,14,48,16.40
2007,05,23,14,49,16.50
2007,05,23,14,50,16.50
2007,05,23,14,51,16.70
2007,05,23,14,52,16.80
2007,05,23,14,53,16.90
2007,05,23,14,54,17.00
2007,05,23,14,55,17.10
2007,05,23,14,56,17.10
2007,05,23,14,57,17.00
2007,05,23,14,58,16.80
2007,05,23,14,59,16.70
2007,05,23,15,00,16.70
2007,05,23,15,01,16.70
2007,05,23,15,02,16.80
2007,05,23,15,03,16.90
2007,05,23,15,04,17.00
2007,05,23,15,05,17.00
2007,05,23,15,06,17.10
2007,05,23,15,07,17.20
2007,05,23,15,08,17.10
2007,05,23,15,09,17.10
2007,05,23,15,10,17.00
2007,05,23,15,11,17.00
2007,05,23,15,12,17.00
2007,05,23,15,13,16.80
2007,05,23,15,14,16.70
2007,05,23,15,15,16.60
2007,05,23,15,16,16.50
2007,05,23,15,17,16.50
2007,05,23,15,18,16.60
2007,05,23,15,19,16.60
2007,05,23,15,20,16.60
2007,05,23,15,21,16.70
2007,05,23,15,22,16.80
2007,05,23,15,23,16.80
2007,05,23,15,24,16.70
2007,05,23,15,25,16.60
2007,05,23,15,26,16.50
2007,05,23,15,27,16.40
2007,05,23,15,28,16.30
2007,05,23,15,29,16.20
2007,05,23,15,30,16.20
2007,05,23,15,31,16.10
2007,05,23,15,32,16.10
2007,05,23,15,33,16.10
2007,05,23,15,34,16.10
2007,05,23,15,35,16.20
2007,05,23,15,36,16.20
2007,05,23,15,37,16.30
2007,05,23,15,38,16.20
2007,05,23,15,39,16.10
2007,05,23,15,40,16.20
2007,05,23,15,41,16.30
2007,05,23,15,42,16.30
2007,05,23,15,43,16.30
2007,05,23,15,44,16.30
2007,05,23,15,45,16.30
2007,05,23,15,46,16.20
2007,05,23,15,47,16.20
2007,05,23,15,48,16.10
2007,05,23,15,49,16.10
2007,05,23,15,50,16.00
2007,05,23,15,51,16.10
2007,05,23,15,52,16.20
2007,05,23,15,53,16.20
2007,05,23,15,54,16.20
2007,05,23,15,55,16.20
2007,05,23,15,56,16.20
2007,05,23,15,57,16.20
2007,05,23,15,58,16.10
2007,05,23,15,59,16.20
2007,05,23,16,00,16.20
2007,05,23,16,01,16.20
2007,05,23,16,02,16.30
2007,05,23,16,03,16.30
2007,05,23,16,04,16.40
2007,05,23,16,05,16.50
2007,05,23,16,06,16.50
2007,05,23,16,07,16.50
2007,05,23,16,08,16.50
2007,05,23,16,09,16.60
2007,05,23,16,10,16.60
2007,05,23,16,11,16.60
2007,05,23,16,12,16.60
2007,05,23,16,13,16.70
2007,05,23,16,14,16.70
2007,05,23,16,15,16.70
2007,05,23,16,16,16.70
2007,05,23,16,17,16.70
2007,05,23,16,18,16.70
2007,05,23,16,19,16.80
2007,05,23,16,20,16.90
2007,05,23,16,21,17.00
2007,05,23,16,22,17.10
2007,05,23,16,23,17.10
2007,05,23,16,24,17.20
2007,05,23,16,25,17.20
2007,05,23,16,26,17.00
2007,05,23,16,27,17.00
2007,05,23,16,28,17.00
2007,05,23,16,29,16.90
2007,05,23,16,30,16.90
2007,05,23,16,31,16.90
2007,05,23,16,32,16.90
2007,05,23,16,33,17.00
2007,05,23,16,34,17.00
2007,05,23,16,35,17.10
2007,05,23,16,36,17.20
2007,05,23,16,37,17.20
2007,05,23,16,38,17.20
2007,05,23,16,39,17.30
2007,05,23,16,40,17.20
2007,05,23,16,41,17.20
2007,05,23,16,42,17.30
2007,05,23,16,43,17.30
2007,05,23,16,44,17.30
2007,05,23,16,45,17.20
2007,05,23,16,46,17.20
2007,05,23,16,47,17.10
2007,05,23,16,48,17.00
2007,05,23,16,49,16.90
2007,05,23,16,50,16.90
2007,05,23,16,51,16.90
2007,05,23,16,52,17.00
2007,05,23,16,53,17.10
2007,05,23,16,54,17.30
2007,05,23,16,55,17.40
2007,05,23,16,56,17.50
2007,05,23,16,57,17.60
2007,05,23,16,58,17.60
2007,05,23,16,59,17.70
2007,05,23,17,00,17.70
2007,05,23,17,01,17.60
2007,05,23,17,02,17.60
2007,05,23,17,03,17.50
2007,05,23,17,04,17.40
2007,05,23,17,05,17.30
2007,05,23,17,06,17.20
2007,05,23,17,07,17.20
2007,05,23,17,08,17.10
2007,05,23,17,09,17.00
2007,05,23,17,10,16.90
2007,05,23,17,11,16.90
2007,05,23,17,12,16.90
2007,05,23,17,13,16.80
2007,05,23,17,14,16.80
2007,05,23,17,15,16.80
2007,05,23,17,16,16.80
2007,05,23,17,17,16.80
2007,05,23,17,18,16.80
2007,05,23,17,19,16.80
2007,05,23,17,20,16.80
2007,05,23,17,21,16.70
2007,05,23,17,22,16.60
2007,05,23,17,23,16.60
2007,05,23,17,24,16.50
2007,05,23,17,25,16.50
2007,05,23,17,26,16.50
2007,05,23,17,27,16.50
2007,05,23,17,28,16.60
2007,05,23,17,29,16.60
2007,05,23,17,30,16.60
2007,05,23,17,31,16.60
2007,05,23,17,32,16.60
2007,05,23,17,33,16.60
2007,05,23,17,34,16.60
2007,05,23,17,35,16.60
2007,05,23,17,36,16.60
2007,05,23,17,37,16.50